星链-5538 (STARLINK-5538 )

导读

STARLINK-5538是美国SpaceX公司星链(Starlink)星座的一颗卫星,于2023年4月27日由猎鹰9号火箭发射升空,属于星链星座组网任务的一部分。星链旨在构建全球低轨卫星互联网,提供宽带接入服务,覆盖偏远地区、移动场景及应急通信等领域。该卫星运行于近地轨道,通过星间链路等技术支持全球网络覆盖,助力星链大规模星座的持续部署。

Basic Information
目录编号:
56357
目录名称:
STARLINK-5538
国际标识:
2023-058AS
轨道中心:
EARTH
卫星名称:
星链-5538
卫星全名:
星链-5538 (STARLINK-5538 )
卫星状态:
在轨 (已飞行1145 天)
发射日期:
2023-04-27 UTC
国别 :
美国 (US)
星等 :
--
Orbit Information
数据来源 国际轨道数据 AOE轨道数据
星历时间 2026-06-15T06:28:59+0800
7小时前
查看轨道信息
2026-06-14T17:00:00+0800
20小时前
查看轨道信息
半长轴 6927.633km 6927.596km
偏心率 0.0002114 0.0002151
轨道倾角 97.359° 97.364°
近地点辐角 103.671° 86.161°
升交点赤经 166.229° 165.702°
平近点角 256.475° 110.802°
近地点 548.031km 547.968km
远地点 550.961km 550.95km
周期 95.639分钟 95.639分钟
每日圈数 15.056551 15.056672
Detailed Information
固有亮度:
5
最大亮度:
2.5
卫星平台:
Starlink v1.5
覆盖范围:
全球
运营商:
太空探索技术公司
运营商所在国:
美国
制造商(研发单位):
太空探索技术公司
制造商所在国:
美国
使用方式:
暂无
Satellite Introduction
星链(Starlink)计划是由太空探索技术公司(SpaceX)提出的一个巨型低轨卫星互联网星座项目,计划在2019年至2024年间在太空搭建由约1.2万颗卫星组成的“星链”网络,其中1584颗将部署在地球上空550千米处的近地轨道,并从2020年开始工作。该卫星仍在工作。
2D Orbit Map
3D Orbit Map
Orbit Altitude Analysis Chart
Orbit Inclination Analysis Chart
Orbit Comprehensive Analysis Chart
View Comprehensive Chart